Flag for Norway Weather past 2 weeks in Leirvik, Norway

Now
48 °F

Cool.


Feels Like: 45 °F
Forecast: 45 / 50 °F
Wind: 6 mph from Southwest

Location: Slatteroy Fyr

Current Time: May 24, 2015 at 9:37:09 PM

Latest Report: May 24, 2015 at 8:00 PM


Visibility: N/A

Pressure: 29.82 "Hg

Humidity: 84%

Dew point: 43 °F

Location of LeirvikLocation

Historic Weather in Leirvik — Graph

°F

Leirvik temperature yesterday

Maximum temperature yesterday: 47 °F (at 5:00 PM)
Minimum temperature yesterday: 44 °F (at 10:00 PM)
Average temperature yesterday: 46 °F

Past Weeks' High & Low Weather Summary

 TemperatureHumidityPressure
High54 °F (May 18, 4:00 PM)95% (May 22, 6:00 AM)30.16 "Hg (May 22, 6:00 AM)
Low42 °F (May 18, 5:00 AM)47% (May 18, 9:00 PM)29.23 "Hg (May 19, 8:00 AM)
Average47 °F79%29.83 "Hg
* Reported May 9 8:00 PM — May 24 8:00 PM, Leirvik, Weather by CustomWeather, © 2015

Note: Actual official high and low records may vary slightly from our data, if they occured in-between our weather recording intervals... More about our weather records

Advertising

Leirvik weather history for previous 24 hours

 ConditionsComfort  
Time TempWeatherWind HumidityBarometerVisibility
8:00 PM
Sun, May 24
48 °FCool.6 mph84%29.82 "HgN/A
7:00 PM48 °FCool.6 mph85%29.82 "HgN/A
6:00 PM48 °FCool.8 mph84%29.82 "HgN/A
5:00 PM48 °FCool.8 mph86%29.81 "HgN/A
4:00 PM47 °FCool.5 mph91%29.80 "HgN/A
3:00 PM47 °FCool.3 mph91%29.80 "HgN/A
2:00 PM47 °FCool.7 mph91%29.79 "HgN/A
1:00 PM48 °FCool.12 mph91%29.77 "HgN/A
12:00 PM47 °FCool.10 mph90%29.78 "HgN/A
11:00 AM46 °FCool.10 mph89%29.79 "HgN/A
10:00 AM44 °FQuite cool.10 mph89%29.81 "HgN/A
9:00 AM44 °FQuite cool.10 mph88%29.83 "HgN/A
8:00 AM43 °FQuite cool.10 mph87%29.85 "HgN/A
7:00 AM43 °FQuite cool.12 mph86%29.88 "HgN/A
6:00 AM43 °FQuite cool.10 mph83%29.92 "HgN/A
5:00 AM43 °FQuite cool.9 mph78%29.95 "HgN/A
4:00 AM43 °FQuite cool.7 mph75%29.98 "HgN/A
3:00 AM42 °FQuite cool.6 mph74%30.01 "HgN/A
2:00 AM42 °FQuite cool.5 mph74%30.03 "HgN/A
1:00 AM42 °FQuite cool.5 mph73%30.05 "HgN/A
12:00 AM43 °FQuite cool.2 mph70%30.07 "HgN/A
10:00 PM
Sat, May 23
44 °FQuite cool.1 mph66%30.09 "HgN/A
9:00 PM45 °FQuite cool.2 mph64%30.11 "HgN/A
Weather by CustomWeather, © 2015

See weather overviewHow to use our weather pages